N4DWK Weather Reports


Display with metric or nautical units.
time (UTC)temp
F
wind
direction
speed
MPH
gust
MPH
rain 1hr
in
rain 24hr
in
rain mn
in
humidity
%
barometer
mb
20260505220503 82 229 8.0 14.0 0.00 0.00 0.00 39 1011.4
20260505220004 82 208 3.0 9.0 0.00 0.00 0.00 39 1011.4
20260505215504 82 223 5.0 12.0 0.00 0.00 0.00 37 1011.3
20260505215005 82 236 4.0 12.0 0.00 0.00 0.00 38 1011.3
20260505214503 82 228 6.0 10.0 0.00 0.00 0.00 37 1011.4
20260505214004 81 213 6.0 13.0 0.00 0.00 0.00 37 1011.4
20260505213504 82 223 5.0 15.0 0.00 0.00 0.00 37 1011.3
20260505213004 82 223 6.0 15.0 0.00 0.00 0.00 36 1011.4
20260505212504 82 220 6.0 10.0 0.00 0.00 0.00 36 1011.4
20260505212004 83 235 5.0 12.0 0.00 0.00 0.00 37 1011.4
20260505211504 83 226 7.0 14.0 0.00 0.00 0.00 36 1011.4
20260505211004 84 214 4.0 14.0 0.00 0.00 0.00 35 1011.4
20260505210503 84 224 6.0 14.0 0.00 0.00 0.00 35 1011.4
20260505210003 84 233 5.0 14.0 0.00 0.00 0.00 35 1011.3
20260505205504 84 224 5.0 13.0 0.00 0.00 0.00 34 1011.3
20260505205004 84 225 8.0 14.0 0.00 0.00 0.00 34 1011.4
20260505204503 83 223 6.0 15.0 0.00 0.00 0.00 35 1011.3
20260505204004 83 236 5.0 15.0 0.00 0.00 0.00 35 1011.3
20260505203504 83 220 6.0 14.0 0.00 0.00 0.00 34 1011.3
20260505203004 85 222 8.0 14.0 0.00 0.00 0.00 33 1011.3
20260505202504 86 238 7.0 12.0 0.00 0.00 0.00 33 1011.3
20260505202004 85 232 5.0 15.0 0.00 0.00 0.00 34 1011.3
20260505201505 85 227 8.0 17.0 0.00 0.00 0.00 34 1011.4
20260505201004 85 214 8.0 17.0 0.00 0.00 0.00 34 1011.5
20260505200504 85 225 4.0 14.0 0.00 0.00 0.00 36 1011.4
20260505200003 85 225 6.0 14.0 0.00 0.00 0.00 35 1011.5
20260505195504 86 233 6.0 14.0 0.00 0.00 0.00 35 1011.5
20260505195004 86 229 4.0 10.0 0.00 0.00 0.00 35 1011.6
20260505194504 85 233 5.0 12.0 0.00 0.00 0.00 36 1011.6
20260505194004 84 231 6.0 13.0 0.00 0.00 0.00 36 1011.7
20260505193503 84 233 7.0 20.0 0.00 0.00 0.00 35 1011.8
20260505193003 85 224 8.0 20.0 0.00 0.00 0.00 35 1011.9
20260505192504 84 199 7.0 15.0 0.00 0.00 0.00 34 1011.9
20260505192004 85 222 8.0 15.0 0.00 0.00 0.00 35 1012.0
20260505191504 85 224 5.0 18.0 0.00 0.00 0.00 35 1012.1
20260505191004 85 197 7.0 18.0 0.00 0.00 0.00 35 1012.1
20260505190503 85 201 6.0 12.0 0.00 0.00 0.00 35 1012.2
20260505190004 86 225 6.0 12.0 0.00 0.00 0.00 35 1012.3
20260505185503 85 222 4.0 10.0 0.00 0.00 0.00 37 1012.3
20260505185003 85 188 5.0 15.0 0.00 0.00 0.00 37 1012.5
20260505184503 85 229 6.0 15.0 0.00 0.00 0.00 37 1012.6
20260505184004 85 235 5.0 13.0 0.00 0.00 0.00 36 1012.5
20260505183505 85 226 5.0 13.0 0.00 0.00 0.00 35 1012.6
20260505183003 84 214 5.0 17.0 0.00 0.00 0.00 35 1012.7
20260505182503 84 232 9.0 17.0 0.00 0.00 0.00 34 1012.8
20260505182003 84 229 7.0 16.0 0.00 0.00 0.00 34 1012.8
20260505181504 85 224 5.0 17.0 0.00 0.00 0.00 35 1013.0
20260505181004 84 228 6.0 17.0 0.00 0.00 0.00 36 1013.0
20260505180504 84 223 6.0 15.0 0.00 0.00 0.00 36 1013.1
20260505180004 84 229 5.0 12.0 0.00 0.00 0.00 37 1013.2
20260505175503 84 214 5.0 13.0 0.00 0.00 0.00 37 1013.0
20260505175004 83 225 6.0 13.0 0.00 0.00 0.00 38 1013.1
20260505174503 83 225 6.0 15.0 0.00 0.00 0.00 37 1013.3
20260505174003 83 233 5.0 15.0 0.00 0.00 0.00 39 1013.2
20260505173503 83 237 5.0 10.0 0.00 0.00 0.00 41 1013.3
20260505173003 83 224 6.0 10.0 0.00 0.00 0.00 41 1013.3
20260505172503 82 225 3.0 8.0 0.00 0.00 0.00 43 1013.3
20260505172003 82 228 4.0 7.0 0.00 0.00 0.00 43 1013.5
20260505171503 83 195 3.0 12.0 0.00 0.00 0.00 44 1013.5
20260505171003 82 221 3.0 12.0 0.00 0.00 0.00 46 1013.5
20260505170503 81 224 6.0 12.0 0.00 0.00 0.00 46 1013.6
20260505170004 81 232 5.0 10.0 0.00 0.00 0.00 46 1013.6
20260505165503 82 236 5.0 10.0 0.00 0.00 0.00 46 1013.7
20260505165005 81 212 3.0 7.0 0.00 0.00 0.00 47 1013.8
20260505164503 80 226 3.0 10.0 0.00 0.00 0.00 48 1013.8
20260505164004 80 156 3.0 10.0 0.00 0.00 0.00 48 1013.9
20260505163503 80 164 3.0 12.0 0.00 0.00 0.00 48 1013.8
20260505163004 79 214 3.0 12.0 0.00 0.00 0.00 49 1013.9
20260505162503 79 193 3.0 12.0 0.00 0.00 0.00 49 1014.0
20260505162004 78 241 5.0 12.0 0.00 0.00 0.00 48 1014.0
20260505161503 78 227 3.0 7.0 0.00 0.00 0.00 50 1014.1
20260505161004 78 221 2.0 7.0 0.00 0.00 0.00 51 1014.3
20260505160504 77 195 2.0 8.0 0.00 0.00 0.00 53 1014.4
20260505153004 74 220 2.0 8.0 0.00 0.00 0.00 56 1014.7
20260505152504 74 230 5.0 9.0 0.00 0.00 0.00 56 1014.8
20260505152003 74 242 3.0 9.0 0.00 0.00 0.00 56 1014.8
20260505151503 73 225 4.0 7.0 0.00 0.00 0.00 58 1014.7
20260505151003 73 216 3.0 10.0 0.00 0.00 0.00 58 1014.7
20260505150504 73 218 5.0 10.0 0.00 0.00 0.00 58 1014.8
20260505140503 69 215 2.0 6.0 0.00 0.00 0.00 63 1014.7
20260505125003 63 210 2.0 6.0 0.00 0.00 0.00 72 1014.8
20260505124503 63 223 3.0 7.0 0.00 0.00 0.00 73 1014.9
20260505124003 63 224 2.0 7.0 0.00 0.00 0.00 73 1014.8
20260505123503 62 236 4.0 7.0 0.00 0.00 0.00 73 1014.9
20260505123003 62 218 2.0 7.0 0.00 0.00 0.00 74 1015.0
20260505122503 62 221 3.0 7.0 0.00 0.00 0.00 73 1014.9
20260505122003 62 219 5.0 7.0 0.00 0.00 0.00 74 1014.9
20260505121503 62 233 4.0 7.0 0.00 0.00 0.00 74 1014.8
20260505121003 62 203 3.0 7.0 0.00 0.00 0.00 75 1014.8
20260505120503 62 233 3.0 7.0 0.00 0.00 0.00 75 1014.7
20260505120003 62 212 2.0 7.0 0.00 0.00 0.00 75 1014.7
20260505115503 62 224 3.0 7.0 0.00 0.00 0.00 75 1014.7
20260505115004 61 223 4.0 7.0 0.00 0.00 0.00 75 1014.6
20260505114503 61 247 3.0 6.0 0.00 0.00 0.00 76 1014.5
20260505114003 61 230 2.0 8.0 0.00 0.00 0.00 76 1014.5
20260505113503 61 219 3.0 8.0 0.00 0.00 0.00 76 1014.4
20260505113003 61 220 3.0 8.0 0.00 0.00 0.00 76 1014.4
20260505112502 60 219 1.0 6.0 0.00 0.00 0.00 77 1014.4
20260505112003 60 225 1.0 6.0 0.00 0.00 0.00 77 1014.3
20260505111503 60 222 2.0 5.0 0.00 0.00 0.00 77 1014.2
20260505111004 60 210 2.0 7.0 0.00 0.00 0.00 77 1014.1
20260505110503 60 191 3.0 7.0 0.00 0.00 0.00 77 1014.0
20260505102003 60 222 3.0 5.0 0.00 0.00 0.00 76 1013.8
20260505101503 60 203 3.0 5.0 0.00 0.00 0.00 76 1013.8
20260505101003 60 215 2.0 5.0 0.00 0.00 0.00 76 1013.8
20260505100503 60 224 3.0 6.0 0.00 0.00 0.00 76 1013.8
20260505100003 60 229 3.0 6.0 0.00 0.00 0.00 75 1013.8
20260505095503 61 221 3.0 5.0 0.00 0.00 0.00 75 1013.8
20260505095003 61 206 3.0 5.0 0.00 0.00 0.00 75 1013.8
20260505094503 61 216 2.0 7.0 0.00 0.00 0.00 74 1013.8
20260505094003 61 217 3.0 7.0 0.00 0.00 0.00 74 1013.8
20260505093503 61 228 2.0 7.0 0.00 0.00 0.00 74 1013.7
20260505093003 61 223 2.0 7.0 0.00 0.00 0.00 74 1013.7
20260505092503 61 225 3.0 7.0 0.00 0.00 0.00 73 1013.7
20260505092003 61 217 3.0 6.0 0.00 0.00 0.00 73 1013.7
20260505091503 62 221 3.0 8.0 0.00 0.00 0.00 73 1013.6
20260505091003 62 217 3.0 8.0 0.00 0.00 0.00 72 1013.6
20260505090502 62 228 2.0 5.0 0.00 0.00 0.00 72 1013.6
20260505090002 62 229 3.0 7.0 0.00 0.00 0.00 72 1013.6
20260505085503 62 209 3.0 7.0 0.00 0.00 0.00 72 1013.6
20260505085005 62 225 3.0 7.0 0.00 0.00 0.00 72 1013.5
20260505084502 62 228 3.0 6.0 0.00 0.00 0.00 72 1013.6
20260505084003 62 222 4.0 6.0 0.00 0.00 0.00 72 1013.6
20260505083503 62 215 2.0 3.0 0.00 0.00 0.00 71 1013.6
20260505083003 62 229 2.0 7.0 0.00 0.00 0.00 71 1013.6
20260505082503 63 232 3.0 7.0 0.00 0.00 0.00 71 1013.5
20260505082003 63 226 4.0 7.0 0.00 0.00 0.00 71 1013.5
20260505081503 63 225 3.0 10.0 0.00 0.00 0.00 71 1013.5
20260505081003 63 217 4.0 10.0 0.00 0.00 0.00 70 1013.5
20260505080503 63 221 3.0 7.0 0.00 0.00 0.00 70 1013.4
20260505080003 63 206 3.0 7.0 0.00 0.00 0.00 70 1013.4
20260505075503 63 237 3.0 7.0 0.00 0.00 0.00 70 1013.5
20260505075003 63 220 3.0 7.0 0.00 0.00 0.00 69 1013.5
20260505074502 63 199 2.0 7.0 0.00 0.00 0.00 69 1013.4
20260505074003 63 230 4.0 7.0 0.00 0.00 0.00 69 1013.4
20260505073504 63 214 3.0 7.0 0.00 0.00 0.00 69 1013.4
20260505073003 63 221 3.0 7.0 0.00 0.00 0.00 68 1013.3
20260505072503 63 231 3.0 8.0 0.00 0.00 0.00 68 1013.2
20260505072003 63 216 5.0 8.0 0.00 0.00 0.00 68 1013.2
20260505071503 63 213 3.0 7.0 0.00 0.00 0.00 67 1013.2
20260505071003 63 223 2.0 9.0 0.00 0.00 0.00 67 1013.2
20260505070503 63 240 3.0 9.0 0.00 0.00 0.00 67 1013.2
20260505070003 63 211 2.0 6.0 0.00 0.00 0.00 66 1013.1
20260505065503 63 205 3.0 6.0 0.00 0.00 0.00 66 1013.1
20260505065003 63 216 3.0 8.0 0.00 0.00 0.00 65 1013.1
20260505064502 64 220 3.0 8.0 0.00 0.00 0.00 65 1013.2
20260505064004 64 222 5.0 8.0 0.00 0.00 0.00 64 1013.2
20260505063503 64 222 3.0 7.0 0.00 0.00 0.00 64 1013.1
20260505063003 64 218 3.0 7.0 0.00 0.00 0.00 64 1013.0
20260505062503 64 234 3.0 12.0 0.00 0.00 0.00 63 1013.1
20260505062003 64 223 5.0 12.0 0.00 0.00 0.00 63 1013.0
20260505061502 64 233 5.0 8.0 0.00 0.00 0.00 63 1013.1
20260505061002 64 219 4.0 7.0 0.00 0.00 0.00 62 1013.1
20260505060503 64 229 3.0 6.0 0.00 0.00 0.00 62 1013.1
20260505060003 64 216 2.0 5.0 0.00 0.00 0.00 62 1013.1
20260505055503 64 215 2.0 5.0 0.00 0.00 0.00 61 1013.2
20260505055003 64 209 2.0 5.0 0.00 0.00 0.00 61 1013.2
20260505054503 64 215 3.0 5.0 0.00 0.00 0.00 60 1013.2
20260505054003 65 220 2.0 5.0 0.00 0.00 0.00 60 1013.1
20260505053503 65 225 2.0 8.0 0.00 0.00 0.00 59 1013.1
20260505053002 65 222 2.0 8.0 0.00 0.00 0.00 59 1013.2
20260505052503 65 204 2.0 6.0 0.00 0.00 0.00 58 1013.2
20260505052004 66 206 2.0 6.0 0.00 0.00 0.00 58 1013.2
20260505051503 66 230 3.0 6.0 0.00 0.00 0.00 57 1013.2
20260505051002 66 221 2.0 7.0 0.00 0.00 0.00 57 1013.1
20260505050503 66 224 2.0 7.0 0.00 0.00 0.00 56 1013.0
20260505041503 67 226 3.0 6.0 0.00 0.00 0.00 55 1012.7
20260505041002 67 203 2.0 3.0 0.00 0.00 0.00 55 1012.6
20260505040502 67 233 1.0 3.0 0.00 0.00 0.00 55 1012.6
20260505040002 67 233 2.0 3.0 0.00 0.00 0.00 55 1012.5
20260505035502 67 233 2.0 3.0 0.00 0.00 0.00 55 1012.5
20260505035002 67 233 1.0 3.0 0.00 0.00 0.00 55 1012.5
20260505034503 67 235 2.0 3.0 0.00 0.00 0.00 55 1012.5
20260505034003 66 209 2.0 3.0 0.00 0.00 0.00 55 1012.5
20260505033502 67 209 2.0 3.0 0.00 0.00 0.00 55 1012.5
20260505033003 67 209 2.0 3.0 0.00 0.00 0.00 55 1012.6
20260505032502 67 209 1.0 3.0 0.00 0.00 0.00 55 1012.6
20260505032002 67 209 2.0 3.0 0.00 0.00 0.00 55 1012.6
20260505031502 67 203 1.0 3.0 0.00 0.00 0.00 55 1012.6
20260505031003 67 202 1.0 3.0 0.00 0.00 0.00 55 1012.6
20260505030503 67 202 2.0 3.0 0.00 0.00 0.00 54 1012.6
20260505030002 68 202 1.0 3.0 0.00 0.00 0.00 54 1012.6
20260505025502 68 202 2.0 3.0 0.00 0.00 0.00 53 1012.7
20260505025003 68 202 2.0 3.0 0.00 0.00 0.00 53 1012.6
20260505024502 68 202 1.0 3.0 0.00 0.00 0.00 53 1012.7
20260505024003 68 202 1.0 3.0 0.00 0.00 0.00 53 1012.7
20260505023502 68 217 2.0 3.0 0.00 0.00 0.00 53 1012.7
20260505023003 69 217 2.0 3.0 0.00 0.00 0.00 52 1012.7
20260505022503 69 201 2.0 3.0 0.00 0.00 0.00 52 1012.6
20260505022003 69 215 2.0 3.0 0.00 0.00 0.00 52 1012.5
20260505021502 69 215 1.0 3.0 0.00 0.00 0.00 52 1012.5
20260505021002 69 215 2.0 3.0 0.00 0.00 0.00 52 1012.5
20260505020502 69 203 2.0 3.0 0.00 0.00 0.00 52 1012.5
20260505020002 69 215 2.0 3.0 0.00 0.00 0.00 51 1012.5
20260505015503 69 215 2.0 3.0 0.00 0.00 0.00 51 1012.5
20260505015002 70 215 2.0 3.0 0.00 0.00 0.00 51 1012.5
20260505014503 70 217 2.0 3.0 0.00 0.00 0.00 51 1012.4
20260505014002 70 217 2.0 3.0 0.00 0.00 0.00 51 1012.4
20260505013502 70 196 2.0 3.0 0.00 0.00 0.00 51 1012.3
20260505013003 70 209 2.0 3.0 0.00 0.00 0.00 51 1012.2
20260505012502 70 209 1.0 3.0 0.00 0.00 0.00 50 1012.2
20260505012003 70 209 2.0 3.0 0.00 0.00 0.00 50 1012.1
20260505011502 70 209 2.0 3.0 0.00 0.00 0.00 50 1012.1
20260505011002 70 213 2.0 3.0 0.00 0.00 0.00 50 1012.0
20260505010504 70 213 2.0 3.0 0.00 0.00 0.00 50 1011.9
20260505010002 71 213 1.0 3.0 0.00 0.00 0.00 49 1011.9
20260505005502 71 213 0.0 1.0 0.00 0.00 0.00 49 1011.8
20260505005004 71 213 0.0 2.0 0.00 0.00 0.00 49 1011.8
20260505004503 71 213 1.0 2.0 0.00 0.00 0.00 48 1011.7
20260505004003 71 213 1.0 2.0 0.00 0.00 0.00 48 1011.8
20260505003502 72 213 0.0 3.0 0.00 0.00 0.00 48 1011.7
20260505003003 72 213 1.0 3.0 0.00 0.00 0.00 48 1011.8
20260505002502 72 213 2.0 3.0 0.00 0.00 0.00 47 1011.8
20260505002002 72 213 1.0 3.0 0.00 0.00 0.00 47 1011.8
20260505001503 72 213 1.0 3.0 0.00 0.00 0.00 47 1011.7
20260505001003 72 213 1.0 3.0 0.00 0.00 0.00 47 1011.8
20260505000502 73 214 1.0 3.0 0.00 0.00 0.00 46 1012.0
20260505000003 73 214 2.0 3.0 0.00 0.00 0.00 45 1012.1
20260504235503 73 215 2.0 5.0 0.00 0.00 0.00 45 1012.0
20260504235003 73 215 2.0 5.0 0.00 0.00 0.00 44 1012.0
20260504234502 73 217 2.0 5.0 0.00 0.00 0.00 44 1011.9
20260504234002 73 222 1.0 3.0 0.00 0.00 0.00 44 1011.8
20260504233503 74 222 2.0 3.0 0.00 0.00 0.00 43 1011.8
20260504233002 74 222 2.0 3.0 0.00 0.00 0.00 43 1011.8
20260504232502 74 221 2.0 5.0 0.00 0.00 0.00 42 1011.8
20260504232003 74 213 2.0 5.0 0.00 0.00 0.00 42 1011.7
20260504231502 75 213 2.0 5.0 0.00 0.00 0.00 42 1011.6
20260504231004 75 211 1.0 6.0 0.00 0.00 0.00 41 1011.5
20260504230502 75 187 3.0 6.0 0.00 0.00 0.00 40 1011.5
20260504230002 75 233 2.0 7.0 0.00 0.00 0.00 40 1011.5
20260504225506 76 219 4.0 7.0 0.00 0.00 0.00 39 1011.6
20260504225002 76 223 3.0 6.0 0.00 0.00 0.00 39 1011.6
20260504224507 76 202 3.0 9.0 0.00 0.00 0.00 39 1011.7
20260504224003 76 212 3.0 9.0 0.00 0.00 0.00 39 1011.8
20260504223504 77 330 5.0 9.0 0.00 0.00 0.00 39 1011.7
20260504222510 77 223 3.0 9.0 0.00 0.00 0.00 39 1011.7
20260504222010 77 227 5.0 9.0 0.00 0.00 0.00 38 1011.7
20260504221509 78 216 5.0 8.0 0.00 0.00 0.00 37 1011.6
20260504221010 78 219 3.0 9.0 0.00 0.00 0.00 37 1011.6